Time,TemperatureF,DewpointF,PressureIn,WindDirection,WindDirectionDegrees,WindSpeedMPH,WindSpeedGustMPH,Humidity,HourlyPrecipIn,Conditions,Clouds,dailyrainin,SoftwareType,DateUTC
2013-02-10 00:08:00,40.1,21.0,30.23,South,172,0.0,1.0,47,0.00,,,0.00,weatherlink.com 1.10,2013-02-10 05:08:00,
2013-02-10 00:23:00,39.5,20.0,30.23,South,172,0.0,3.0,46,0.00,,,0.00,weatherlink.com 1.10,2013-02-10 05:23:00,
2013-02-10 00:38:00,39.3,20.0,30.23,South,172,0.0,1.0,46,0.00,,,0.00,weatherlink.com 1.10,2013-02-10 05:38:00,
2013-02-10 00:53:00,39.1,20.0,30.23,South,172,0.0,1.0,46,0.00,,,0.00,weatherlink.com 1.10,2013-02-10 05:53:00,
2013-02-10 01:08:00,39.4,20.0,30.23,South,172,0.0,2.0,45,0.00,,,0.00,weatherlink.com 1.10,2013-02-10 06:08:00,
2013-02-10 13:36:00,45.1,25.0,30.19,South,176,3.0,6.0,46,0.00,,,0.00,weatherlink.com 1.10,2013-02-10 18:36:00,
2013-02-10 13:54:00,44.8,25.0,30.17,South,180,3.0,8.0,47,0.00,,,0.00,weatherlink.com 1.10,2013-02-10 18:54:00,
2013-02-10 14:09:00,43.9,24.0,30.16,South,177,2.0,6.0,45,0.00,,,0.00,weatherlink.com 1.10,2013-02-10 19:09:00,
2013-02-10 14:24:00,43.1,24.0,30.18,South,179,2.0,6.0,48,0.00,,,0.00,weatherlink.com 1.10,2013-02-10 19:24:00,
2013-02-10 14:39:00,43.6,25.0,30.17,South,178,3.0,4.0,48,0.00,,,0.00,weatherlink.com 1.10,2013-02-10 19:39:00,
2013-02-10 14:54:00,43.5,25.0,30.17,South,178,0.0,4.0,49,0.00,,,0.00,weatherlink.com 1.10,2013-02-10 19:54:00,
2013-02-10 15:09:00,44.1,26.0,30.16,South,179,4.0,4.0,50,0.00,,,0.00,weatherlink.com 1.10,2013-02-10 20:09:00,
2013-02-10 15:24:00,43.7,26.0,30.15,South,177,4.0,5.0,51,0.00,,,0.00,weatherlink.com 1.10,2013-02-10 20:24:00,
2013-02-10 15:39:00,42.8,27.0,30.14,South,179,3.0,7.0,54,0.00,,,0.00,weatherlink.com 1.10,2013-02-10 20:39:00,
2013-02-10 15:54:00,42.7,27.0,30.15,South,179,2.0,5.0,54,0.00,,,0.00,weatherlink.com 1.10,2013-02-10 20:54:00,
2013-02-10 16:09:00,42.4,27.0,30.15,South,179,1.0,5.0,55,0.00,,,0.00,weatherlink.com 1.10,2013-02-10 21:09:00,
2013-02-10 16:24:00,42.3,27.0,30.16,South,179,2.0,4.0,54,0.00,,,0.00,weatherlink.com 1.10,2013-02-10 21:24:00,
2013-02-10 16:39:00,41.8,27.0,30.16,South,179,2.0,4.0,55,0.00,,,0.00,weatherlink.com 1.10,2013-02-10 21:39:00,
2013-02-10 16:55:00,41.6,27.0,30.15,South,179,3.0,6.0,56,0.00,,,0.00,weatherlink.com 1.10,2013-02-10 21:55:00,
2013-02-10 17:10:00,41.5,27.0,30.15,South,179,1.0,5.0,56,0.00,,,0.00,weatherlink.com 1.10,2013-02-10 22:10:00,
2013-02-10 17:24:00,41.3,26.0,30.14,South,179,2.0,5.0,56,0.00,,,0.00,weatherlink.com 1.10,2013-02-10 22:24:00,
2013-02-10 17:39:00,40.8,27.0,30.15,South,179,2.0,3.0,59,0.00,,,0.00,weatherlink.com 1.10,2013-02-10 22:39:00,
2013-02-10 17:55:00,40.0,28.0,30.16,South,179,0.0,3.0,63,0.00,,,0.00,weatherlink.com 1.10,2013-02-10 22:55:00,
2013-02-10 18:09:00,39.6,29.0,30.15,South,179,4.0,4.0,65,0.00,,,0.00,weatherlink.com 1.10,2013-02-10 23:09:00,
2013-02-10 18:24:00,37.7,32.0,30.15,South,179,0.0,4.0,81,0.02,,,0.02,weatherlink.com 1.10,2013-02-10 23:24:00,
2013-02-10 18:39:00,36.3,32.0,30.14,South,179,0.0,0.0,84,0.04,,,0.04,weatherlink.com 1.10,2013-02-10 23:39:00,
2013-02-10 18:55:00,36.1,32.0,30.15,South,179,0.0,0.0,86,0.06,,,0.06,weatherlink.com 1.10,2013-02-10 23:55:00,
2013-02-10 19:09:00,35.7,33.0,30.15,South,179,0.0,0.0,89,0.09,,,0.09,weatherlink.com 1.10,2013-02-11 00:09:00,
2013-02-10 19:24:00,35.9,33.0,30.15,South,179,0.0,2.0,89,0.10,,,0.12,weatherlink.com 1.10,2013-02-11 00:24:00,
2013-02-10 19:39:00,35.6,33.0,30.16,South,179,0.0,1.0,90,0.09,,,0.13,weatherlink.com 1.10,2013-02-11 00:39:00,
2013-02-10 19:54:00,36.3,34.0,30.16,South,179,0.0,1.0,91,0.08,,,0.14,weatherlink.com 1.10,2013-02-11 00:54:00,
2013-02-10 20:09:00,36.7,34.0,30.16,South,179,0.0,0.0,89,0.07,,,0.16,weatherlink.com 1.10,2013-02-11 01:09:00,
2013-02-10 20:24:00,36.6,34.0,30.17,South,179,0.0,0.0,91,0.05,,,0.17,weatherlink.com 1.10,2013-02-11 01:24:00,
2013-02-10 20:39:00,36.4,34.0,30.18,South,179,0.0,2.0,92,0.05,,,0.18,weatherlink.com 1.10,2013-02-11 01:39:00,
2013-02-10 20:54:00,37.7,36.0,30.18,South,179,0.0,1.0,94,0.08,,,0.22,weatherlink.com 1.10,2013-02-11 01:54:00,
2013-02-10 21:09:00,38.9,37.0,30.17,South,179,4.0,5.0,94,0.09,,,0.25,weatherlink.com 1.10,2013-02-11 02:09:00,
2013-02-10 21:24:00,39.4,38.0,30.16,South,176,5.0,6.0,94,0.09,,,0.26,weatherlink.com 1.10,2013-02-11 02:24:00,
2013-02-10 21:39:00,39.3,38.0,30.16,South,176,3.0,5.0,94,0.08,,,0.28,weatherlink.com 1.10,2013-02-11 02:39:00,
2013-02-10 21:54:00,39.5,38.0,30.14,South,176,0.0,6.0,94,0.07,,,0.29,weatherlink.com 1.10,2013-02-11 02:54:00,
2013-02-10 22:10:00,39.5,38.0,30.12,South,176,1.0,2.0,95,0.07,,,0.32,weatherlink.com 1.10,2013-02-11 03:10:00,
2013-02-10 22:25:00,39.3,38.0,30.11,South,176,0.0,2.0,95,0.07,,,0.33,weatherlink.com 1.10,2013-02-11 03:25:00,
2013-02-10 22:40:00,39.4,38.0,30.11,South,176,0.0,3.0,95,0.05,,,0.33,weatherlink.com 1.10,2013-02-11 03:40:00,
2013-02-10 22:55:00,41.0,40.0,30.11,South,172,1.0,10.0,96,0.04,,,0.33,weatherlink.com 1.10,2013-02-11 03:55:00,
2013-02-10 23:10:00,41.6,41.0,30.10,South,172,3.0,5.0,96,0.01,,,0.33,weatherlink.com 1.10,2013-02-11 04:10:00,
2013-02-10 23:25:00,41.5,41.0,30.07,South,172,0.0,3.0,96,0.00,,,0.33,weatherlink.com 1.10,2013-02-11 04:25:00,
2013-02-10 23:40:00,41.0,40.0,30.09,South,172,0.0,3.0,96,0.00,,,0.33,weatherlink.com 1.10,2013-02-11 04:40:00,
2013-02-10 23:55:00,41.5,41.0,30.07,South,172,0.0,1.0,96,0.00,,,0.33,weatherlink.com 1.10,2013-02-11 04:55:00,